| time (UTC) | temp F | wind direction | speed MPH | gust MPH | rain 1hr in | rain 24hr in | rain mn in | humidity % | barometer mb |
| 20260901063049 | 75 | 230 | 0.0 | 1.0 | 0.00 | 0.00 | 0.00 | 97 | 1016.0 |
| 20260901062544 | 75 | 249 | 0.0 | 0.0 | 0.00 | 0.00 | 0.00 | 96 | 1016.0 |
| 20260901062040 | 76 | 249 | 0.0 | 1.0 | 0.00 | 0.00 | 0.00 | 95 | 1016.0 |
| 20260901061536 | 76 | 174 | 0.0 | 1.0 | 0.00 | 0.00 | 0.00 | 95 | 1016.0 |
| 20260901061031 | 76 | 345 | 0.0 | 3.0 | 0.00 | 0.00 | 0.00 | 95 | 1016.0 |
| 20260901060525 | 76 | 215 | 2.0 | 3.0 | 0.00 | 0.00 | 0.00 | 95 | 1016.0 |
| 20260901060020 | 76 | 180 | 2.0 | 3.0 | 0.00 | 0.00 | 0.00 | 95 | 1016.1 |
| 20260901055515 | 76 | 192 | 2.0 | 3.0 | 0.00 | 0.00 | 0.00 | 95 | 1016.2 |
| 20260901055013 | 76 | 222 | 2.0 | 3.0 | 0.00 | 0.00 | 0.00 | 95 | 1016.2 |
| 20260901054509 | 76 | 246 | 4.0 | 4.0 | 0.00 | 0.00 | 0.00 | 95 | 1015.9 |
| 20260901054005 | 77 | 212 | 0.0 | 3.0 | 0.00 | 0.00 | 0.00 | 95 | 1016.2 |
| 20260901053501 | 77 | 194 | 1.0 | 4.0 | 0.00 | 0.00 | 0.00 | 95 | 1016.1 |
| 20260901052956 | 77 | 204 | 1.0 | 3.0 | 0.00 | 0.00 | 0.00 | 94 | 1015.9 |
| 20260901052451 | 77 | 213 | 2.0 | 3.0 | 0.00 | 0.00 | 0.00 | 94 | 1015.8 |
| 20260901051944 | 77 | 192 | 4.0 | 4.0 | 0.00 | 0.00 | 0.00 | 95 | 1016.0 |
| 20260901051439 | 77 | 172 | 2.0 | 4.0 | 0.00 | 0.00 | 0.00 | 94 | 1016.0 |
| 20260901050938 | 77 | 191 | 2.0 | 4.0 | 0.00 | 0.00 | 0.00 | 94 | 1015.9 |
| 20260901050434 | 77 | 228 | 2.0 | 4.0 | 0.00 | 0.00 | 0.00 | 95 | 1016.2 |
| 20260901045929 | 77 | 197 | 3.0 | 4.0 | 0.00 | 0.14 | 0.14 | 95 | 1016.0 |
| 20260901045424 | 77 | 204 | 2.0 | 4.0 | 0.00 | 0.14 | 0.14 | 96 | 1015.8 |
| 20260901044919 | 77 | 219 | 1.0 | 3.0 | 0.00 | 0.14 | 0.14 | 96 | 1015.9 |
| 20260901044415 | 77 | 172 | 0.0 | 4.0 | 0.00 | 0.14 | 0.14 | 96 | 1016.3 |
| 20260901043910 | 76 | 220 | 0.0 | 3.0 | 0.00 | 0.14 | 0.14 | 96 | 1016.0 |
| 20260901043407 | 77 | 175 | 0.0 | 2.0 | 0.00 | 0.14 | 0.14 | 96 | 1016.2 |
| 20260901042901 | 77 | 151 | 1.0 | 2.0 | 0.00 | 0.14 | 0.14 | 96 | 1016.0 |
| 20260901042355 | 77 | 183 | 0.0 | 2.0 | 0.00 | 0.14 | 0.14 | 96 | 1016.1 |
| 20260901041851 | 77 | 174 | 1.0 | 2.0 | 0.00 | 0.14 | 0.14 | 96 | 1016.2 |
| 20260901041345 | 77 | 189 | 3.0 | 4.0 | 0.00 | 0.14 | 0.14 | 96 | 1016.0 |
| 20260901040840 | 77 | 144 | 1.0 | 3.0 | 0.00 | 0.14 | 0.14 | 96 | 1016.2 |
| 20260901040339 | 77 | 168 | 2.0 | 4.0 | 0.00 | 0.14 | 0.14 | 96 | 1016.2 |
| 20260901035838 | 77 | 158 | 1.0 | 3.0 | 0.00 | 0.14 | 0.14 | 95 | 1016.1 |
| 20260901035337 | 77 | 200 | 0.0 | 2.0 | 0.00 | 0.14 | 0.14 | 95 | 1016.0 |
| 20260901034836 | 77 | 165 | 1.0 | 3.0 | 0.00 | 0.14 | 0.14 | 95 | 1016.1 |
| 20260901034332 | 77 | 167 | 2.0 | 3.0 | 0.00 | 0.14 | 0.14 | 95 | 1016.1 |
| 20260901033831 | 78 | 181 | 1.0 | 4.0 | 0.00 | 0.14 | 0.14 | 94 | 1016.2 |
| 20260901033330 | 78 | 170 | 2.0 | 3.0 | 0.00 | 0.14 | 0.14 | 94 | 1016.3 |
| 20260901032829 | 78 | 167 | 3.0 | 4.0 | 0.00 | 0.14 | 0.14 | 94 | 1016.2 |
| 20260901032329 | 78 | 158 | 2.0 | 4.0 | 0.00 | 0.14 | 0.14 | 93 | 1016.1 |
| 20260901031824 | 78 | 186 | 5.0 | 6.0 | 0.00 | 0.14 | 0.14 | 93 | 1016.2 |
| 20260901031320 | 78 | 187 | 3.0 | 4.0 | 0.00 | 0.14 | 0.14 | 93 | 1016.2 |
| 20260901030819 | 78 | 185 | 2.0 | 5.0 | 0.00 | 0.14 | 0.14 | 93 | 1016.1 |
| 20260901030315 | 78 | 187 | 0.0 | 4.0 | 0.00 | 0.14 | 0.14 | 92 | 1016.3 |
| 20260901025814 | 79 | 152 | 0.0 | 3.0 | 0.00 | 0.14 | 0.14 | 92 | 1016.2 |
| 20260901025309 | 79 | 204 | 3.0 | 6.0 | 0.00 | 0.14 | 0.14 | 92 | 1016.2 |
| 20260901024804 | 79 | 219 | 2.0 | 2.0 | 0.00 | 0.14 | 0.14 | 92 | 1016.4 |
| 20260901024303 | 79 | 190 | 2.0 | 3.0 | 0.00 | 0.14 | 0.14 | 92 | 1016.3 |
| 20260901023801 | 79 | 192 | 3.0 | 5.0 | 0.00 | 0.14 | 0.14 | 92 | 1016.2 |
| 20260901023256 | 79 | 176 | 3.0 | 4.0 | 0.00 | 0.14 | 0.14 | 92 | 1016.2 |
| 20260901022751 | 79 | 156 | 2.0 | 6.0 | 0.00 | 0.14 | 0.14 | 91 | 1016.4 |
| 20260901022247 | 79 | 195 | 1.0 | 4.0 | 0.00 | 0.14 | 0.14 | 91 | 1016.3 |
| 20260901021742 | 79 | 201 | 3.0 | 5.0 | 0.00 | 0.14 | 0.14 | 91 | 1016.3 |
| 20260901021238 | 79 | 225 | 1.0 | 4.0 | 0.00 | 0.14 | 0.14 | 91 | 1016.4 |
| 20260901020733 | 79 | 202 | 2.0 | 3.0 | 0.00 | 0.14 | 0.14 | 90 | 1016.6 |
| 20260901020228 | 80 | 207 | 2.0 | 5.0 | 0.00 | 0.14 | 0.14 | 90 | 1016.6 |
| 20260901015723 | 80 | 188 | 2.0 | 6.0 | 0.00 | 0.14 | 0.14 | 90 | 1016.1 |
| 20260901015219 | 80 | 184 | 1.0 | 5.0 | 0.00 | 0.14 | 0.14 | 89 | 1016.2 |
| 20260901014718 | 80 | 170 | 1.0 | 4.0 | 0.00 | 0.14 | 0.14 | 89 | 1016.1 |
| 20260901014215 | 80 | 197 | 3.0 | 4.0 | 0.00 | 0.14 | 0.14 | 88 | 1016.2 |
| 20260901013710 | 80 | 176 | 3.0 | 4.0 | 0.00 | 0.14 | 0.14 | 89 | 1016.1 |
| 20260901013205 | 80 | 167 | 2.0 | 3.0 | 0.00 | 0.14 | 0.14 | 89 | 1016.0 |
| 20260901012701 | 80 | 150 | 3.0 | 5.0 | 0.00 | 0.14 | 0.14 | 89 | 1016.0 |
| 20260901012155 | 80 | 174 | 2.0 | 5.0 | 0.00 | 0.14 | 0.14 | 88 | 1016.2 |
| 20260901011651 | 80 | 220 | 3.0 | 6.0 | 0.00 | 0.14 | 0.14 | 89 | 1016.1 |
| 20260901011150 | 80 | 162 | 3.0 | 5.0 | 0.00 | 0.14 | 0.14 | 89 | 1015.9 |
| 20260901010645 | 80 | 168 | 3.0 | 4.0 | 0.00 | 0.14 | 0.14 | 89 | 1015.8 |
| 20260901010145 | 80 | 170 | 3.0 | 6.0 | 0.00 | 0.14 | 0.14 | 89 | 1016.0 |
| 20260901005644 | 80 | 200 | 4.0 | 5.0 | 0.00 | 0.14 | 0.14 | 89 | 1016.2 |
| 20260901005140 | 81 | 215 | 4.0 | 6.0 | 0.00 | 0.14 | 0.14 | 88 | 1016.1 |
| 20260901004639 | 81 | 205 | 2.0 | 4.0 | 0.00 | 0.14 | 0.14 | 88 | 1016.0 |
| 20260901004134 | 81 | 219 | 5.0 | 5.0 | 0.00 | 0.14 | 0.14 | 88 | 1015.8 |
| 20260901003629 | 81 | 157 | 4.0 | 6.0 | 0.00 | 0.14 | 0.14 | 88 | 1015.7 |
| 20260901003127 | 81 | 164 | 2.0 | 7.0 | 0.00 | 0.14 | 0.14 | 88 | 1015.7 |
| 20260901002622 | 81 | 200 | 4.0 | 8.0 | 0.00 | 0.14 | 0.14 | 88 | 1015.7 |
| 20260901002116 | 81 | 180 | 2.0 | 6.0 | 0.00 | 0.14 | 0.14 | 88 | 1015.5 |
| 20260901001611 | 81 | 166 | 2.0 | 7.0 | 0.00 | 0.14 | 0.14 | 88 | 1015.4 |
| 20260901001106 | 81 | 200 | 2.0 | 5.0 | 0.00 | 0.14 | 0.14 | 88 | 1015.3 |
| 20260901000556 | 81 | 164 | 3.0 | 5.0 | 0.00 | 0.14 | 0.14 | 88 | 1015.2 |
| 20260901000052 | 81 | 153 | 2.0 | 5.0 | 0.00 | 0.14 | 0.14 | 88 | 1015.3 |
| 20260831235545 | 82 | 144 | 4.0 | 6.0 | 0.00 | 0.14 | 0.14 | 88 | 1015.2 |
| 20260831235041 | 82 | 146 | 3.0 | 5.0 | 0.00 | 0.14 | 0.14 | 88 | 1015.3 |
| 20260831234534 | 82 | 171 | 1.0 | 5.0 | 0.00 | 0.14 | 0.14 | 87 | 1015.5 |
| 20260831234030 | 82 | 173 | 3.0 | 4.0 | 0.00 | 0.14 | 0.14 | 87 | 1015.4 |
| 20260831233525 | 82 | 159 | 3.0 | 8.0 | 0.00 | 0.14 | 0.14 | 87 | 1015.5 |
| 20260831233021 | 83 | 221 | 2.0 | 7.0 | 0.00 | 0.14 | 0.14 | 86 | 1015.5 |
| 20260831232516 | 83 | 190 | 5.0 | 11.0 | 0.00 | 0.14 | 0.14 | 86 | 1015.5 |
| 20260831232012 | 82 | 144 | 7.0 | 9.0 | 0.00 | 0.14 | 0.14 | 86 | 1015.9 |
| 20260831231509 | 83 | 195 | 3.0 | 7.0 | 0.00 | 0.14 | 0.14 | 86 | 1015.6 |
| 20260831231004 | 83 | 174 | 3.0 | 7.0 | 0.00 | 0.14 | 0.14 | 86 | 1015.5 |
| 20260831230459 | 83 | 156 | 2.0 | 6.0 | 0.00 | 0.14 | 0.14 | 87 | 1015.5 |
| 20260831225953 | 82 | 209 | 3.0 | 5.0 | 0.00 | 0.14 | 0.14 | 86 | 1015.5 |
| 20260831225449 | 82 | 194 | 3.0 | 10.0 | 0.00 | 0.14 | 0.14 | 86 | 1015.6 |
| 20260831224943 | 83 | 199 | 5.0 | 6.0 | 0.00 | 0.14 | 0.14 | 85 | 1015.5 |
| 20260831224443 | 83 | 210 | 4.0 | 6.0 | 0.00 | 0.14 | 0.14 | 84 | 1015.5 |
| 20260831223938 | 84 | 208 | 3.0 | 9.0 | 0.00 | 0.14 | 0.14 | 82 | 1015.5 |
| 20260831223433 | 84 | 170 | 4.0 | 8.0 | 0.00 | 0.14 | 0.14 | 83 | 1015.4 |
| 20260831222930 | 84 | 195 | 4.0 | 9.0 | 0.00 | 0.14 | 0.14 | 83 | 1015.4 |
| 20260831222426 | 84 | 163 | 4.0 | 6.0 | 0.00 | 0.14 | 0.14 | 83 | 1015.5 |
| 20260831221920 | 83 | 195 | 8.0 | 8.0 | 0.00 | 0.14 | 0.14 | 84 | 1015.4 |
| 20260831221416 | 83 | 179 | 3.0 | 8.0 | 0.00 | 0.14 | 0.14 | 85 | 1015.3 |
| 20260831220911 | 83 | 179 | 3.0 | 6.0 | 0.00 | 0.14 | 0.14 | 84 | 1015.2 |
| 20260831220407 | 84 | 199 | 2.0 | 8.0 | 0.00 | 0.14 | 0.14 | 85 | 1015.4 |
| 20260831215901 | 83 | 180 | 5.0 | 7.0 | 0.00 | 0.14 | 0.14 | 84 | 1015.4 |
| 20260831215352 | 82 | 176 | 3.0 | 9.0 | 0.00 | 0.14 | 0.14 | 85 | 1015.1 |
| 20260831214848 | 80 | 186 | 7.0 | 8.0 | 0.00 | 0.14 | 0.14 | 88 | 1015.2 |
| 20260831214345 | 80 | 211 | 3.0 | 12.0 | 0.00 | 0.14 | 0.14 | 89 | 1015.3 |
| 20260831213840 | 80 | 167 | 6.0 | 10.0 | 0.00 | 0.14 | 0.14 | 89 | 1015.3 |
| 20260831213337 | 80 | 182 | 3.0 | 9.0 | 0.00 | 0.14 | 0.14 | 90 | 1015.2 |
| 20260831212831 | 79 | 175 | 4.0 | 9.0 | 0.00 | 0.14 | 0.14 | 90 | 1015.4 |
| 20260831212328 | 78 | 173 | 3.0 | 8.0 | 0.00 | 0.14 | 0.14 | 91 | 1015.2 |
| 20260831211827 | 78 | 168 | 3.0 | 8.0 | 0.00 | 0.14 | 0.14 | 92 | 1015.3 |
| 20260831211322 | 78 | 236 | 4.0 | 7.0 | 0.00 | 0.14 | 0.14 | 91 | 1015.1 |
| 20260831210821 | 78 | 201 | 5.0 | 7.0 | 0.00 | 0.14 | 0.14 | 91 | 1015.2 |
| 20260831210317 | 78 | 191 | 4.0 | 9.0 | 0.00 | 0.14 | 0.14 | 91 | 1014.9 |
| 20260831205817 | 78 | 180 | 5.0 | 13.0 | 0.00 | 0.14 | 0.14 | 90 | 1014.7 |
| 20260831205313 | 78 | 152 | 5.0 | 13.0 | 0.00 | 0.14 | 0.14 | 91 | 1014.4 |
| 20260831204808 | 77 | 137 | 3.0 | 6.0 | 0.00 | 0.14 | 0.14 | 92 | 1013.7 |
| 20260831204307 | 77 | 89 | 2.0 | 7.0 | 0.00 | 0.14 | 0.14 | 91 | 1014.4 |
| 20260831203806 | 77 | 201 | 4.0 | 5.0 | 0.00 | 0.14 | 0.14 | 91 | 1015.3 |
| 20260831203255 | 77 | 185 | 4.0 | 8.0 | 0.00 | 0.14 | 0.14 | 90 | 1015.3 |
| 20260831202753 | 77 | 183 | 2.0 | 4.0 | 0.00 | 0.14 | 0.14 | 91 | 1014.9 |
| 20260831202248 | 77 | 170 | 4.0 | 11.0 | 0.00 | 0.14 | 0.14 | 90 | 1015.1 |
| 20260831201743 | 77 | 154 | 5.0 | 9.0 | 0.02 | 0.14 | 0.14 | 89 | 1015.2 |
| 20260831201242 | 78 | 173 | 4.0 | 9.0 | 0.02 | 0.14 | 0.14 | 89 | 1015.5 |
| 20260831200737 | 79 | 181 | 4.0 | 15.0 | 0.00 | 0.13 | 0.13 | 83 | 1015.7 |
| 20260831200232 | 80 | 178 | 7.0 | 23.0 | 0.00 | 0.13 | 0.13 | 81 | 1015.7 |
| 20260831195728 | 80 | 201 | 10.0 | 16.0 | 0.00 | 0.13 | 0.13 | 80 | 1015.8 |
| 20260831195224 | 81 | 180 | 7.0 | 18.0 | 0.00 | 0.13 | 0.13 | 79 | 1015.6 |
| 20260831194718 | 81 | 209 | 6.0 | 11.0 | 0.00 | 0.13 | 0.13 | 78 | 1015.5 |
| 20260831194214 | 82 | 209 | 8.0 | 12.0 | 0.00 | 0.13 | 0.13 | 77 | 1015.3 |
| 20260831193707 | 82 | 191 | 5.0 | 13.0 | 0.00 | 0.13 | 0.13 | 77 | 1015.3 |
| 20260831193203 | 82 | 193 | 6.0 | 13.0 | 0.00 | 0.13 | 0.13 | 77 | 1015.3 |
| 20260831192658 | 82 | 182 | 6.0 | 13.0 | 0.00 | 0.13 | 0.13 | 75 | 1015.5 |
| 20260831192153 | 83 | 176 | 7.0 | 12.0 | 0.00 | 0.13 | 0.13 | 74 | 1015.5 |
| 20260831191649 | 83 | 165 | 9.0 | 22.0 | 0.00 | 0.13 | 0.13 | 74 | 1015.5 |
| 20260831191145 | 83 | 146 | 6.0 | 28.0 | 0.00 | 0.13 | 0.13 | 72 | 1015.3 |
| 20260831190640 | 84 | 167 | 10.0 | 12.0 | 0.00 | 0.13 | 0.13 | 71 | 1015.3 |
| 20260831190139 | 85 | 196 | 9.0 | 15.0 | 0.00 | 0.13 | 0.13 | 70 | 1015.1 |
| 20260831185634 | 84 | 176 | 10.0 | 24.0 | 0.00 | 0.13 | 0.13 | 69 | 1015.2 |
| 20260831185130 | 84 | 160 | 7.0 | 19.0 | 0.00 | 0.13 | 0.13 | 72 | 1015.2 |
| 20260831184630 | 84 | 141 | 8.0 | 22.0 | 0.00 | 0.13 | 0.13 | 71 | 1015.4 |
| 20260831184126 | 85 | 182 | 5.0 | 13.0 | 0.00 | 0.13 | 0.13 | 70 | 1015.3 |
| 20260831183625 | 86 | 191 | 8.0 | 13.0 | 0.00 | 0.13 | 0.13 | 68 | 1015.6 |
| 20260831183124 | 85 | 150 | 9.0 | 16.0 | 0.00 | 0.13 | 0.13 | 70 | 1015.6 |
| 20260831182623 | 84 | 163 | 6.0 | 13.0 | 0.00 | 0.13 | 0.13 | 71 | 1015.5 |
| 20260831182120 | 84 | 186 | 9.0 | 20.0 | 0.00 | 0.13 | 0.13 | 69 | 1015.3 |
| 20260831181619 | 84 | 179 | 7.0 | 16.0 | 0.00 | 0.13 | 0.13 | 70 | 1015.2 |
| 20260831181114 | 84 | 204 | 17.0 | 17.0 | 0.00 | 0.13 | 0.13 | 71 | 1015.3 |
| 20260831180609 | 84 | 217 | 6.0 | 13.0 | 0.00 | 0.13 | 0.13 | 70 | 1015.3 |
| 20260831180104 | 84 | 179 | 8.0 | 17.0 | 0.00 | 0.13 | 0.13 | 70 | 1015.4 |
| 20260831175559 | 83 | 160 | 8.0 | 17.0 | 0.00 | 0.13 | 0.13 | 73 | 1015.5 |
| 20260831175056 | 83 | 153 | 4.0 | 14.0 | 0.00 | 0.13 | 0.13 | 73 | 1015.5 |
| 20260831174550 | 83 | 192 | 8.0 | 13.0 | 0.00 | 0.13 | 0.13 | 70 | 1015.4 |
| 20260831174044 | 82 | 149 | 7.0 | 14.0 | 0.00 | 0.13 | 0.13 | 73 | 1015.4 |
| 20260831173543 | 82 | 183 | 5.0 | 14.0 | 0.00 | 0.13 | 0.13 | 74 | 1015.7 |
| 20260831173039 | 81 | 169 | 7.0 | 14.0 | 0.00 | 0.13 | 0.13 | 74 | 1015.8 |
| 20260831172534 | 81 | 163 | 15.0 | 16.0 | 0.00 | 0.13 | 0.13 | 73 | 1015.6 |
| 20260831172029 | 81 | 191 | 6.0 | 14.0 | 0.00 | 0.13 | 0.13 | 74 | 1015.5 |
| 20260831171525 | 81 | 141 | 5.0 | 14.0 | 0.00 | 0.13 | 0.13 | 75 | 1015.6 |
| 20260831171021 | 80 | 141 | 7.0 | 15.0 | 0.00 | 0.13 | 0.13 | 76 | 1015.8 |
| 20260831170517 | 80 | 159 | 3.0 | 17.0 | 0.00 | 0.13 | 0.13 | 74 | 1015.6 |
| 20260831170015 | 81 | 165 | 6.0 | 18.0 | 0.00 | 0.13 | 0.13 | 72 | 1015.9 |
| 20260831165514 | 82 | 188 | 16.0 | 16.0 | 0.00 | 0.13 | 0.13 | 72 | 1016.2 |
| 20260831165012 | 81 | 161 | 10.0 | 19.0 | 0.00 | 0.13 | 0.13 | 74 | 1016.0 |
| 20260831164507 | 80 | 152 | 8.0 | 23.0 | 0.00 | 0.13 | 0.13 | 73 | 1016.2 |
| 20260831164003 | 80 | 168 | 9.0 | 20.0 | 0.00 | 0.13 | 0.13 | 75 | 1016.1 |
| 20260831163457 | 80 | 146 | 13.0 | 17.0 | 0.00 | 0.13 | 0.13 | 75 | 1016.1 |
| 20260831162956 | 79 | 193 | 7.0 | 12.0 | 0.00 | 0.13 | 0.13 | 75 | 1016.3 |
| 20260831162452 | 79 | 161 | 7.0 | 17.0 | 0.00 | 0.13 | 0.13 | 77 | 1016.6 |
| 20260831161949 | 79 | 158 | 7.0 | 20.0 | 0.00 | 0.13 | 0.13 | 76 | 1016.4 |
| 20260831161446 | 79 | 166 | 12.0 | 17.0 | 0.00 | 0.13 | 0.13 | 76 | 1016.4 |
| 20260831160942 | 79 | 196 | 5.0 | 13.0 | 0.00 | 0.13 | 0.13 | 77 | 1016.3 |
| 20260831160441 | 78 | 145 | 8.0 | 17.0 | 0.00 | 0.13 | 0.13 | 79 | 1016.3 |
| 20260831155936 | 78 | 150 | 10.0 | 17.0 | 0.00 | 0.13 | 0.13 | 79 | 1016.7 |
| 20260831155431 | 78 | 182 | 12.0 | 13.0 | 0.00 | 0.13 | 0.13 | 78 | 1016.6 |
| 20260831154926 | 78 | 174 | 4.0 | 14.0 | 0.00 | 0.13 | 0.13 | 81 | 1016.8 |
| 20260831154417 | 77 | 168 | 11.0 | 21.0 | 0.00 | 0.13 | 0.13 | 83 | 1016.8 |
| 20260831153915 | 77 | 166 | 12.0 | 15.0 | 0.00 | 0.13 | 0.13 | 83 | 1016.7 |
| 20260831153411 | 75 | 156 | 5.0 | 9.0 | 0.00 | 0.13 | 0.13 | 86 | 1016.6 |
| 20260831152907 | 75 | 148 | 5.0 | 15.0 | 0.00 | 0.13 | 0.13 | 86 | 1016.6 |
| 20260831152403 | 75 | 134 | 12.0 | 17.0 | 0.00 | 0.13 | 0.13 | 87 | 1016.4 |
| 20260831151858 | 74 | 142 | 9.0 | 18.0 | 0.00 | 0.13 | 0.13 | 87 | 1016.7 |
| 20260831151356 | 74 | 147 | 5.0 | 10.0 | 0.00 | 0.13 | 0.13 | 88 | 1016.8 |
| 20260831150852 | 74 | 123 | 5.0 | 11.0 | 0.00 | 0.13 | 0.13 | 89 | 1016.9 |
| 20260831150348 | 74 | 152 | 4.0 | 16.0 | 0.00 | 0.13 | 0.13 | 88 | 1016.7 |
| 20260831145847 | 73 | 139 | 6.0 | 14.0 | 0.00 | 0.13 | 0.13 | 89 | 1016.7 |
| 20260831145343 | 73 | 149 | 8.0 | 15.0 | 0.00 | 0.13 | 0.13 | 89 | 1016.8 |
| 20260831144839 | 73 | 122 | 8.0 | 16.0 | 0.00 | 0.13 | 0.13 | 89 | 1016.9 |
| 20260831144334 | 73 | 116 | 7.0 | 9.0 | 0.00 | 0.13 | 0.13 | 90 | 1016.6 |
| 20260831143829 | 73 | 147 | 9.0 | 13.0 | 0.00 | 0.13 | 0.13 | 90 | 1016.7 |
| 20260831143324 | 73 | 154 | 5.0 | 11.0 | 0.00 | 0.13 | 0.13 | 91 | 1016.4 |
| 20260831142819 | 73 | 136 | 3.0 | 13.0 | 0.00 | 0.13 | 0.13 | 91 | 1016.6 |
| 20260831142314 | 73 | 122 | 3.0 | 9.0 | 0.00 | 0.13 | 0.13 | 91 | 1016.4 |
| 20260831141809 | 73 | 148 | 8.0 | 16.0 | 0.00 | 0.13 | 0.13 | 91 | 1016.6 |
| 20260831141303 | 73 | 144 | 8.0 | 13.0 | 0.00 | 0.13 | 0.13 | 92 | 1016.8 |
| 20260831140758 | 73 | 132 | 3.0 | 19.0 | 0.00 | 0.13 | 0.13 | 92 | 1016.7 |
| 20260831140252 | 73 | 144 | 5.0 | 18.0 | 0.00 | 0.13 | 0.13 | 91 | 1016.6 |
| 20260831135750 | 73 | 173 | 6.0 | 9.0 | 0.00 | 0.13 | 0.13 | 92 | 1016.7 |
| 20260831135246 | 72 | 171 | 4.0 | 14.0 | 0.00 | 0.13 | 0.13 | 93 | 1016.9 |
| 20260831134742 | 71 | 127 | 5.0 | 10.0 | 0.00 | 0.13 | 0.13 | 93 | 1016.9 |
| 20260831134238 | 71 | 107 | 2.0 | 6.0 | 0.00 | 0.13 | 0.13 | 93 | 1016.8 |
| 20260831133737 | 71 | 155 | 4.0 | 7.0 | 0.00 | 0.13 | 0.13 | 93 | 1017.1 |
| 20260831133231 | 71 | 161 | 2.0 | 6.0 | 0.02 | 0.13 | 0.13 | 93 | 1017.0 |
| 20260831132726 | 70 | 128 | 3.0 | 9.0 | 0.02 | 0.13 | 0.13 | 94 | 1016.8 |
| 20260831132226 | 71 | 149 | 11.0 | 12.0 | 0.00 | 0.13 | 0.13 | 93 | 1017.1 |
| 20260831131721 | 71 | 117 | 5.0 | 8.0 | 0.00 | 0.13 | 0.13 | 93 | 1017.0 |
| 20260831131218 | 71 | 61 | 2.0 | 17.0 | 0.00 | 0.13 | 0.13 | 92 | 1017.0 |
| 20260831130712 | 71 | 141 | 3.0 | 5.0 | 0.00 | 0.13 | 0.13 | 94 | 1017.3 |
| 20260831130208 | 70 | 100 | 1.0 | 5.0 | 0.00 | 0.13 | 0.13 | 95 | 1017.2 |
| 20260831125706 | 70 | 89 | 0.0 | 6.0 | 0.00 | 0.13 | 0.13 | 95 | 1017.3 |
| 20260831125203 | 70 | 107 | 0.0 | 3.0 | 0.02 | 0.13 | 0.13 | 95 | 1017.3 |
| 20260831124657 | 70 | 74 | 1.0 | 7.0 | 0.02 | 0.13 | 0.13 | 96 | 1017.2 |
| 20260831124153 | 70 | 114 | 0.0 | 3.0 | 0.00 | 0.13 | 0.13 | 96 | 1017.2 |
| 20260831123653 | 69 | 91 | 1.0 | 4.0 | 0.00 | 0.13 | 0.13 | 97 | 1017.2 |
| 20260831123151 | 69 | 124 | 1.0 | 4.0 | 0.02 | 0.13 | 0.13 | 97 | 1017.0 |
| 20260831122646 | 69 | 123 | 1.0 | 4.0 | 0.02 | 0.13 | 0.13 | 97 | 1016.8 |
| 20260831122143 | 69 | 139 | 3.0 | 5.0 | 0.00 | 0.12 | 0.12 | 98 | 1016.8 |
| 20260831121641 | 69 | 119 | 1.0 | 3.0 | 0.00 | 0.12 | 0.12 | 98 | 1017.0 |
| 20260831121138 | 69 | 74 | 0.0 | 3.0 | 0.00 | 0.12 | 0.12 | 98 | 1017.1 |
| 20260831120633 | 69 | 111 | 1.0 | 4.0 | 0.00 | 0.12 | 0.12 | 98 | 1017.2 |
| 20260831120128 | 69 | 142 | 0.0 | 3.0 | 0.00 | 0.12 | 0.12 | 98 | 1017.0 |
| 20260831115624 | 69 | 133 | 0.0 | 2.0 | 0.00 | 0.12 | 0.12 | 98 | 1016.8 |
| 20260831115119 | 70 | 123 | 0.0 | 4.0 | 0.00 | 0.12 | 0.12 | 97 | 1017.1 |
| 20260831114618 | 70 | 138 | 3.0 | 6.0 | 0.00 | 0.12 | 0.12 | 97 | 1016.9 |
| 20260831114113 | 70 | 121 | 1.0 | 7.0 | 0.00 | 0.12 | 0.12 | 96 | 1016.9 |
| 20260831113613 | 70 | 151 | 5.0 | 9.0 | 0.02 | 0.12 | 0.12 | 95 | 1016.9 |
| 20260831113108 | 69 | 156 | 7.0 | 11.0 | 0.33 | 0.12 | 0.12 | 96 | 1017.0 |
| 20260831112607 | 69 | 147 | 6.0 | 9.0 | 0.40 | 0.12 | 0.12 | 97 | 1017.2 |
| 20260831112102 | 69 | 148 | 1.0 | 5.0 | 0.19 | 0.07 | 0.07 | 97 | 1017.3 |
| 20260831111558 | 70 | 263 | 5.0 | 7.0 | 0.14 | 0.05 | 0.05 | 96 | 1017.5 |
| 20260831111054 | 70 | 113 | 0.0 | 6.0 | 0.17 | 0.03 | 0.03 | 95 | 1017.3 |
| 20260831110549 | 71 | 277 | 2.0 | 8.0 | 0.12 | 0.02 | 0.02 | 94 | 1017.2 |
| 20260831110044 | 71 | 173 | 4.0 | 13.0 | 0.02 | 0.00 | 0.00 | 92 | 1017.3 |
| 20260831105543 | 72 | 210 | 7.0 | 7.0 | 0.00 | 0.00 | 0.00 | 89 | 1017.1 |
| 20260831105038 | 72 | 211 | 4.0 | 6.0 | 0.00 | 0.00 | 0.00 | 88 | 1017.1 |
| 20260831104534 | 72 | 196 | 4.0 | 6.0 | 0.00 | 0.00 | 0.00 | 88 | 1016.9 |
| 20260831104030 | 72 | 176 | 2.0 | 3.0 | 0.00 | 0.00 | 0.00 | 88 | 1016.8 |
| 20260831103525 | 72 | 216 | 2.0 | 6.0 | 0.00 | 0.00 | 0.00 | 88 | 1016.7 |
| 20260831103021 | 73 | 269 | 0.0 | 3.0 | 0.00 | 0.00 | 0.00 | 88 | 1016.4 |
| 20260831102515 | 73 | 181 | 2.0 | 5.0 | 0.00 | 0.00 | 0.00 | 88 | 1016.2 |
| 20260831102010 | 73 | 190 | 1.0 | 4.0 | 0.00 | 0.00 | 0.00 | 89 | 1016.3 |
| 20260831101505 | 73 | 235 | 3.0 | 4.0 | 0.00 | 0.00 | 0.00 | 89 | 1016.1 |
| 20260831101001 | 73 | 212 | 2.0 | 4.0 | 0.00 | 0.00 | 0.00 | 89 | 1015.7 |
| 20260831100457 | 73 | 164 | 2.0 | 5.0 | 0.00 | 0.00 | 0.00 | 88 | 1015.9 |
| 20260831095952 | 73 | 192 | 4.0 | 8.0 | 0.00 | 0.00 | 0.00 | 88 | 1016.0 |
| 20260831095451 | 73 | 137 | 3.0 | 6.0 | 0.00 | 0.00 | 0.00 | 88 | 1015.8 |
| 20260831094946 | 73 | 137 | 6.0 | 8.0 | 0.00 | 0.00 | 0.00 | 88 | 1015.7 |
| 20260831094442 | 73 | 177 | 3.0 | 6.0 | 0.00 | 0.00 | 0.00 | 89 | 1015.9 |
| 20260831093938 | 73 | 143 | 3.0 | 4.0 | 0.00 | 0.00 | 0.00 | 89 | 1015.8 |
| 20260831093432 | 73 | 155 | 1.0 | 5.0 | 0.00 | 0.00 | 0.00 | 89 | 1015.9 |
| 20260831092929 | 73 | 166 | 4.0 | 10.0 | 0.00 | 0.00 | 0.00 | 89 | 1016.2 |
| 20260831092424 | 73 | 134 | 3.0 | 7.0 | 0.00 | 0.00 | 0.00 | 90 | 1015.9 |
| 20260831091914 | 73 | 152 | 4.0 | 7.0 | 0.00 | 0.00 | 0.00 | 90 | 1016.0 |
| 20260831091409 | 73 | 153 | 4.0 | 9.0 | 0.00 | 0.00 | 0.00 | 91 | 1015.8 |
| 20260831090904 | 73 | 111 | 1.0 | 10.0 | 0.00 | 0.00 | 0.00 | 91 | 1016.0 |
| 20260831090400 | 73 | 128 | 2.0 | 6.0 | 0.00 | 0.00 | 0.00 | 92 | 1015.8 |
| 20260831085856 | 73 | 129 | 3.0 | 5.0 | 0.00 | 0.00 | 0.00 | 91 | 1016.1 |
| 20260831085350 | 73 | 137 | 3.0 | 5.0 | 0.00 | 0.00 | 0.00 | 92 | 1015.8 |
| 20260831084844 | 73 | 150 | 0.0 | 7.0 | 0.00 | 0.00 | 0.00 | 92 | 1015.6 |
| 20260831084341 | 72 | 150 | 2.0 | 3.0 | 0.00 | 0.00 | 0.00 | 93 | 1016.1 |
| 20260831083837 | 72 | 113 | 1.0 | 4.0 | 0.00 | 0.00 | 0.00 | 93 | 1016.1 |
| 20260831083332 | 72 | 132 | 3.0 | 6.0 | 0.00 | 0.00 | 0.00 | 93 | 1016.0 |
| 20260831082831 | 72 | 131 | 0.0 | 5.0 | 0.00 | 0.00 | 0.00 | 93 | 1016.2 |
| 20260831082326 | 73 | 125 | 0.0 | 4.0 | 0.00 | 0.00 | 0.00 | 93 | 1016.2 |
| 20260831081822 | 73 | 89 | 0.0 | 4.0 | 0.00 | 0.00 | 0.00 | 93 | 1016.4 |
| 20260831081317 | 73 | 164 | 2.0 | 3.0 | 0.00 | 0.00 | 0.00 | 93 | 1016.1 |
| 20260831080813 | 73 | 124 | 0.0 | 3.0 | 0.00 | 0.00 | 0.00 | 93 | 1016.3 |
| 20260831080308 | 73 | 138 | 2.0 | 3.0 | 0.00 | 0.00 | 0.00 | 93 | 1016.3 |
| 20260831075803 | 73 | 141 | 4.0 | 5.0 | 0.00 | 0.00 | 0.00 | 93 | 1016.1 |
| 20260831075258 | 72 | 128 | 3.0 | 7.0 | 0.00 | 0.00 | 0.00 | 94 | 1016.0 |
| 20260831074758 | 72 | 146 | 1.0 | 2.0 | 0.00 | 0.00 | 0.00 | 94 | 1016.6 |
| 20260831074252 | 72 | 113 | 0.0 | 1.0 | 0.00 | 0.00 | 0.00 | 94 | 1016.2 |
| 20260831073748 | 72 | 141 | 1.0 | 2.0 | 0.00 | 0.00 | 0.00 | 94 | 1016.7 |
| 20260831073246 | 72 | 150 | 2.0 | 3.0 | 0.00 | 0.00 | 0.00 | 94 | 1016.8 |
| 20260831072742 | 73 | 129 | 0.0 | 1.0 | 0.00 | 0.00 | 0.00 | 93 | 1016.6 |
| 20260831072238 | 73 | 142 | 0.0 | 0.0 | 0.00 | 0.00 | 0.00 | 92 | 1016.9 |
| 20260831071738 | 73 | 205 | 0.0 | 2.0 | 0.00 | 0.00 | 0.00 | 92 | 1016.6 |
| 20260831071232 | 73 | 205 | 0.0 | 2.0 | 0.00 | 0.00 | 0.00 | 91 | 1016.7 |
| 20260831070727 | 73 | 154 | 0.0 | 4.0 | 0.00 | 0.00 | 0.00 | 91 | 1016.9 |
| 20260831070221 | 73 | 171 | 1.0 | 2.0 | 0.00 | 0.00 | 0.00 | 91 | 1016.7 |
| 20260831065720 | 73 | 125 | 1.0 | 3.0 | 0.00 | 0.00 | 0.00 | 91 | 1016.8 |
| 20260831065219 | 74 | 136 | 2.0 | 5.0 | 0.00 | 0.00 | 0.00 | 91 | 1016.7 |
| 20260831064714 | 74 | 155 | 3.0 | 5.0 | 0.00 | 0.00 | 0.00 | 91 | 1016.8 |
| 20260831064209 | 74 | 215 | 0.0 | 8.0 | 0.00 | 0.00 | 0.00 | 90 | 1016.9 |
| 20260831063705 | 74 | 152 | 4.0 | 5.0 | 0.00 | 0.00 | 0.00 | 90 | 1016.7 |